Flag for Japan Weather past 2 weeks in Kitakyushu, Japan

Now
43 °F

Passing clouds.


Feels Like: 38 °F
Forecast: 42 / 49 °F
Wind: 8 mph from North

Location: Kitakyushu Airport

Current Time: Feb 28, 2015 at 10:11:44 AM

Latest Report: Feb 28, 2015 at 9:00 AM


Visibility: N/A

Pressure: 30.33 "Hg

Humidity: 57%

Dew point: 28 °F

Location of KitakyushuLocation

Historic Weather in Kitakyushu — Graph

°F

Kitakyushu temperature yesterday

Maximum temperature yesterday: 48 °F (at 12:00 AM)
Minimum temperature yesterday: 39 °F (at 5:00 PM)
Average temperature yesterday: 43 °F

Past Weeks' High & Low Weather Summary

 TemperatureHumidityPressure
High55 °F (Feb 22, 3:00 PM)100% (Feb 16, 8:00 PM)30.36 "Hg (Feb 16, 8:00 PM)
Low39 °F (Feb 13, 7:00 PM)30% (Feb 14, 2:00 PM)29.83 "Hg (Feb 16, 6:00 PM)
Average46 °F73%30.08 "Hg
* Reported Feb 13 9:00 AM — Feb 28 9:00 AM, Kitakyushu, Weather by CustomWeather, © 2015

Note: Actual official high and low records may vary slightly from our data, if they occured in-between our weather recording intervals... More about our weather records

Advertising

Kitakyushu weather history for previous 24 hours

 ConditionsComfort  
Time TempWeatherWind HumidityBarometerVisibility
9:00 AM
Sat, Feb 28
43 °FPassing clouds.8 mph57%30.33 "HgN/A
8:00 AM43 °FSunny.10 mph57%30.33 "Hg10 mi
7:00 AM41 °FPassing clouds.6 mph57%30.33 "HgN/A
6:00 AM41 °FPassing clouds.10 mph70%30.33 "HgN/A
5:00 AM41 °FPartly cloudy.16 mph66%30.33 "HgN/A
4:00 AM41 °FPassing clouds.12 mph66%30.30 "HgN/A
3:00 AM41 °FPartly cloudy.6 mph61%30.30 "HgN/A
2:00 AM41 °FPassing clouds.8 mph61%30.30 "HgN/A
1:00 AM41 °FPartly cloudy.5 mph61%30.30 "HgN/A
12:00 AM41 °FPartly cloudy.5 mph57%30.33 "HgN/A
11:00 PM
Fri, Feb 27
39 °FPartly cloudy.6 mph61%30.33 "HgN/A
10:00 PM39 °FPartly cloudy.7 mph61%30.30 "HgN/A
9:00 PM39 °FPartly cloudy.7 mph56%30.30 "HgN/A
8:00 PM39 °FPassing clouds.16 mph65%30.30 "HgN/A
7:00 PM39 °FPartly cloudy.15 mph70%30.27 "HgN/A
6:00 PM39 °FBroken clouds.13 mph56%30.24 "HgN/A
5:00 PM39 °FScattered clouds.17 mph52%30.24 "HgN/A
4:00 PM41 °FPartly sunny.21 mph53%30.21 "HgN/A
3:00 PM43 °FPartly sunny.23 mph53%30.21 "HgN/A
2:00 PM43 °FScattered clouds.22 mph53%30.18 "HgN/A
1:00 PM45 °FPassing clouds.21 mph49%30.18 "HgN/A
12:00 PM45 °FScattered clouds.21 mph53%30.18 "HgN/A
11:00 AM45 °FScattered clouds.20 mph49%30.21 "HgN/A
10:00 AM43 °FScattered clouds.20 mph53%30.21 "HgN/A
Weather by CustomWeather, © 2015

See weather overviewHow to use our weather pages